sat.trackr.live / text

‹ back to catalog

STARLINK-6155

NORAD 57076 · 2023-088AE

PAYLOAD ACTIVE UNKNOWN

§ Identity

Operator
Country
US
Launch date
2023-06-22
Launch site
AFWTR
Launch vehicle
Mass (kg)
RCS (m²)

Purposes: comms

External: N2YO · Heavens-Above · Gunter

§ Orbital elements

Epoch: 2026-09-20T21:45:59.444064Z

Period
94.27 min
Inclination
43.0022°
Eccentricity
0.0000969
Mean motion
15.27575154 rev/d
Perigee alt
482.4 km
Apogee alt
483.7 km
Semi-major
6,861.2 km
B*
2.6445e-6
RAAN
73.8747°
Arg perigee
256.5156°
Mean anomaly
103.5588°
Rev number
18,018

§ Raw data

STARLINK-61551 57076U 23088AE  26263.90693801 -.00000189  00000+0  26445-5 0  99952 57076  43.0022  73.8747 0000969 256.5156 103.5588 15.27575154180188

JSON: /api/v1/satellites/57076 · /tle

For live sub-satellite position, see the globe view (requires WebGL).

§ Visibility from observer

Set your observer location to see the next 7 days of passes ≥ 10°. The values pass through the URL so the page stays shareable.

No JS? Fill the form by hand. The geolocation button needs JavaScript.